Showing default

IRIDIUM 135, 43070

Orbit data source: Space-Track

IRIDIUM 135, 43070 is a payload satellite owned by Iridium (US) in LEO that was launched on Sat, 23 Dec 2017 UTC via an FALCON 9 launch vehicle from the Air Force Western Test Range (AFWTR). Payload-class satellites include a variety of spacecraft equipped with specific instruments for various scientific and technological missions. These include communications satellites like Starlink; space stations such as the ISS; scientific satellites like the Hubble; Earth observation satellites from companies like Planet Labs, Umbra, and HawkEye 360; GPS; miniature CubeSats for education and research; and military/defense satellites.

Loading next visibility...
Identifier
43070, 2017-083A
Orbit
LEO
Country
Flag of USUS
Related business
Manufacturer
OATK SSG Gilbert
Mission
Operational Commercial Communications
Bus & Motor
ELITEBUS, Unknown motor
Mass
860 kg wet, 700 kg dry
Launch date (UTC)
2017-12-23 (8 years ago)
Launch vehicle
FALCON 9
Launch site
Air Force Western Test Range (AFWTR)
Object type
Payload
Rocket body
Debris
Shape & HBR
Trap Box + 2 Pan, 4.7 m
Radar Cross Section
14.423 m², Large (>1 m²)

Expand to show TLE details & history
Last TLE update: 18 hours ago

TLE from 18 hours ago
0 IRIDIUM 135
1 43070U 17083A   25260.00781174 -.00000004  00000-0 -84926-5 0  9996
2 43070  86.3907  76.2112 0001975  84.3597 275.7823 14.34217512404996
Epoch: 2025-09-17T00:11Z
TLE epoch observation values (Epoch: 2025-09-17T00:11:14.934Z)
Latitude
-0.00011°
Longitude
77.20903°
Altitude
780.577 km
Speed
7.464 km/s
True Right ascension
05h 04m 50s
True Declination
0° 00' 00"
Sunlit
Object was in daylight at epoch
Visualization orbit readout
Latitude
Unknown
Longitude
Unknown
Altitude
Unknown
Speed
Unknown
Apparent Right ascension
Unknown
Apparent Declination
Unknown
Sunlit
N/A
Visualization observer readout
Local Sidereal Time
11:27:37
Azimuth
Unknown
Elevation
Unknown
Doppler factor
Unknown
Orbital elements
Apogee altitude
776.045 km
Perigee altitude
773.22 km
Semi-major axis
7,152.77 km
Eccentricity
0.0002
Inclination
86.3907°
RAAN
76.2112°
Arg. of periapsis
84.3597°
True anomaly
275.75978°
Mean anomaly
275.7823°
Eccentric anomaly
275.77104°
Mean motion
3.58783 °/min
Orbital period
100.34 mins
BSTAR
-0.0000084926
Loading maneuver chart data...
Computing Atmospheric mass density...
Loading historical data...
Loading historical data...
Loading historical data...
Loading historical data...
Loading historical data...
Loading historical data...
Loading historical data...

Documentation

Showing up to 5 results
|